Weather History for KHUL - March, 2013

Change the Weather History Date:

Saturday, March 9, 2013

  Actual Average Record
Temperature  
Mean Temperature 30 °F 23 °F  
Max Temperature 37 °F 34 °F 53 °F (2012)
Min Temperature 23 °F 12 °F -24 °F (1987)
Degree Days  
Heating Degree Days 35 42  
Month to date heating degree days 292 394  
Since 1 July heating degree days 6397 6967  
Cooling Degree Days 0 0  
Month to date cooling degree days 0 0  
Year to date cooling degree days 0 0  
Moisture  
Dew Point 20 °F    
Average Humidity 69    
Maximum Humidity 81    
Minimum Humidity 56    
Precipitation  
Precipitation 0.00 in 0.08 in 1.09 in (1998)
Month to date precipitation 0.37 0.74  
Year to date precipitation 2.77 5.60  
Sea Level Pressure  
Sea Level Pressure 30.34 in    
Wind  
Wind Speed 6 mph (NE)    
Max Wind Speed 15 mph    
Max Gust Speed 18 mph    
Visibility 10 miles    
Events      
T = Trace of Precipitation, MM = Missing Value Source: NWS Daily Summary

Daily Weather History Graph

Daily Weather History Graph

Search for Another Location

Airport or City:

Trip Planner

Search our weather history database for the weather conditions in past years. The results will help you decide how hot, cold, wet, or windy it might be!

Date:

Astronomy

Mar. 09, 2013 Rise Set
Actual Time 5:54 AM EST 5:29 PM EST
Civil Twilight 5:25 AM EST 5:58 PM EST
Nautical Twilight 4:50 AM EST 6:33 PM EST
Astronomical Twilight 4:15 AM EST 7:08 PM EST
Moon 4:22 AM EST (3/9) 3:22 PM EST (3/9)
Length of Visible Light 12h 33m
Length of Day
11h 34m
Waning Crescent, 5% of the Moon is Illuminated
Mar 9
Waning Crescent
Mar 11
New
Mar 19
First Quarter
Mar 27
Full
Apr 3
Last Quarter

Hourly Weather History & Observations

Time (EST) Temp. Windchill Dew Point Humidity Pressure Visibility Wind Dir Wind Speed Gust Speed Precip Events Conditions
12:53 AM 26.1 °F 19.4 °F 19.9 °F 78% 30.29 in 10.0 mi NNE 5.8 mph - N/A   Partly Cloudy
1:12 AM 26.6 °F 20.0 °F 19.4 °F 74% 30.26 in 10.0 mi NNE 5.8 mph - N/A   Mostly Cloudy
1:53 AM 27.0 °F 20.5 °F 21.0 °F 78% 30.27 in 10.0 mi NNE 5.8 mph - N/A   Overcast
2:53 AM 27.0 °F 20.5 °F 21.0 °F 78% 30.27 in 10.0 mi NNE 5.8 mph - N/A   Overcast
3:53 AM 27.0 °F 19.5 °F 21.0 °F 78% 30.28 in 10.0 mi North 6.9 mph - N/A   Overcast
4:53 AM 27.0 °F 20.5 °F 19.9 °F 75% 30.30 in 10.0 mi NNE 5.8 mph - N/A   Overcast
5:53 AM 27.0 °F 18.7 °F 19.0 °F 72% 30.32 in 10.0 mi NE 8.1 mph - N/A   Overcast
6:53 AM 27.0 °F 19.5 °F 19.9 °F 75% 30.33 in 10.0 mi NE 6.9 mph - N/A   Overcast
7:53 AM 27.0 °F 18.0 °F 19.9 °F 75% 30.35 in 10.0 mi NNE 9.2 mph - N/A   Overcast
8:53 AM 27.0 °F 18.0 °F 19.0 °F 72% 30.35 in 10.0 mi NE 9.2 mph - N/A   Overcast
9:53 AM 28.9 °F 21.1 °F 19.9 °F 69% 30.36 in 10.0 mi NE 8.1 mph - N/A   Overcast
10:53 AM 28.9 °F 19.8 °F 21.0 °F 72% 30.35 in 10.0 mi NE 10.4 mph 17.3 mph N/A   Overcast
11:53 AM 30.9 °F 21.2 °F 21.0 °F 67% 30.34 in 10.0 mi East 12.7 mph - N/A   Scattered Clouds
12:53 PM 34.0 °F 26.0 °F 21.0 °F 59% 30.33 in 10.0 mi NE 10.4 mph - N/A   Clear
1:53 PM 35.1 °F 27.4 °F 21.9 °F 59% 30.33 in 10.0 mi NNE 10.4 mph - N/A   Clear
2:53 PM 36.0 °F 28.0 °F 21.9 °F 57% 30.32 in 10.0 mi NNE 11.5 mph - N/A   Clear
3:53 PM 36.0 °F 31.1 °F 21.9 °F 57% 30.33 in 10.0 mi ENE 5.8 mph - N/A   Clear
4:53 PM 35.1 °F 29.3 °F 21.9 °F 59% 30.35 in 10.0 mi ENE 6.9 mph - N/A   Clear
5:53 PM 32.0 °F 26.4 °F 21.0 °F 64% 30.35 in 10.0 mi East 5.8 mph - N/A   Clear
6:53 PM 30.0 °F 26.5 °F 21.0 °F 69% 30.38 in 10.0 mi Variable 3.5 mph - N/A   Clear
7:53 PM 28.0 °F - 19.9 °F 72% 30.38 in 10.0 mi Calm Calm - N/A   Clear
8:53 PM 26.1 °F - 19.9 °F 78% 30.39 in 10.0 mi Calm Calm - N/A   Clear
9:53 PM 25.0 °F - 19.0 °F 78% 30.39 in 10.0 mi Calm Calm - N/A   Clear
10:53 PM 26.1 °F - 19.9 °F 78% 30.40 in 10.0 mi Calm Calm - N/A   Mostly Cloudy
11:53 PM 26.1 °F - 21.0 °F 81% 30.40 in 10.0 mi Calm Calm - N/A   Overcast